Location: Friaudour
(46.0460°N, 1.2873°E)
Time: 08:03:50
(UTC+00:00)

RESURS DK-1 - Pass Details

Date: 14 July 2020
Orbit: 555 x 562 km, 69.9° (Epoch: 14 August)

Event Time Altitude Azimuth Distance (km) Brightness Sun altitude
Rises 23:57:23 0° 318° (NW) 2,754 6.6 -22.3°
Reaches altitude 10° 00:00:01 10° 302° (WNW) 1,854 5.4 -22.3°
Enters shadow 00:02:33 20° 265° (W) 1,336 4.2 -22.3°
